EZS63KJ LSGG-LIPZ

Flight info

Callsign EZS63KJ
Flight time 0h 58m
Altitude 37000
Route SOSAL N871 KORED DCT BERSU DCT RESIA DCT ADOSA/N0347F190 L612 ALBET
Aircraft A320/M-SDE2E3FGHIJ1RWXYZ/LB1

Departure

Time 2026-05-06 10:27
Airport Geneva International Airport (LSGG)

Arrival

Time 2026-05-06 11:25
Airport Venice Marco Polo Airport (LIPZ)
Time Latitude Longitude Altitude Speed Heading
2026-05-06 10:01 46.23063 6.10266 1385 ft 0 kts
2026-05-06 10:02 46.23048 6.10265 1387 ft 0 kts 181°
2026-05-06 10:16 46.23045 6.10265 1390 ft 2 kts 181°
2026-05-06 10:16 46.23006 6.10264 1388 ft 6 kts 181°
2026-05-06 10:16 46.22981 6.10270 1387 ft 3 kts 154°
2026-05-06 10:17 46.22963 6.10292 1387 ft 4 kts 136°
2026-05-06 10:17 46.22957 6.10347 1389 ft 10 kts 68°
2026-05-06 10:17 46.23028 6.10456 1389 ft 20 kts 45°
2026-05-06 10:17 46.23123 6.10595 1388 ft 17 kts 45°
2026-05-06 10:18 46.23191 6.10695 1388 ft 12 kts 45°
2026-05-06 10:18 46.23257 6.10776 1386 ft 10 kts 24°
2026-05-06 10:18 46.23307 6.10796 1386 ft 5 kts 16°
2026-05-06 10:18 46.23324 6.10803 1388 ft 3 kts 14°
2026-05-06 10:19 46.23355 6.10792 1385 ft 8 kts 325°
2026-05-06 10:19 46.23409 6.10714 1388 ft 10 kts 315°
2026-05-06 10:19 46.23455 6.10711 1387 ft 7 kts 37°
2026-05-06 10:19 46.23497 6.10775 1387 ft 11 kts 45°
2026-05-06 10:20 46.23558 6.10863 1387 ft 14 kts 45°
2026-05-06 10:20 46.23635 6.10978 1387 ft 18 kts 46°
2026-05-06 10:20 46.23725 6.11108 1388 ft 16 kts 45°
2026-05-06 10:20 46.23800 6.11219 1388 ft 16 kts 45°
2026-05-06 10:21 46.23882 6.11341 1388 ft 18 kts 46°
2026-05-06 10:21 46.23974 6.11474 1386 ft 20 kts 45°
2026-05-06 10:21 46.24074 6.11620 1389 ft 21 kts 45°
2026-05-06 10:21 46.24180 6.11777 1388 ft 23 kts 45°
2026-05-06 10:22 46.24295 6.11946 1388 ft 24 kts 45°
2026-05-06 10:22 46.24401 6.12101 1389 ft 19 kts 46°
2026-05-06 10:22 46.24479 6.12216 1388 ft 14 kts 44°
2026-05-06 10:22 46.24538 6.12304 1387 ft 12 kts 45°
2026-05-06 10:23 46.24606 6.12402 1385 ft 16 kts 45°
2026-05-06 10:23 46.24693 6.12530 1387 ft 20 kts 46°
2026-05-06 10:23 46.24795 6.12664 1387 ft 18 kts 26°
2026-05-06 10:23 46.24890 6.12707 1388 ft 11 kts 17°
2026-05-06 10:24 46.24917 6.12719 1387 ft 0 kts 18°
2026-05-06 10:24 46.24927 6.12724 1387 ft 4 kts 18°
2026-05-06 10:24 46.24976 6.12720 1387 ft 10 kts 337°
2026-05-06 10:25 46.24997 6.12657 1385 ft 5 kts 263°
2026-05-06 10:25 46.24987 6.12628 1387 ft 5 kts 233°
2026-05-06 10:25 46.24968 6.12601 1385 ft 0 kts 225°
2026-05-06 10:25 46.24959 6.12588 1386 ft 12 kts 226°
2026-05-06 10:26 46.24726 6.12245 1396 ft 80 kts 225°
2026-05-06 10:26 46.24206 6.11481 1386 ft 132 kts 225°
2026-05-06 10:26 46.23457 6.10387 1408 ft 172 kts 226°
2026-05-06 10:26 46.22579 6.09107 1779 ft 186 kts 226°
2026-05-06 10:27 46.21649 6.07732 2356 ft 195 kts 228°
2026-05-06 10:27 46.20977 6.06062 3086 ft 195 kts 255°
2026-05-06 10:27 46.21150 6.04147 3709 ft 201 kts 300°
2026-05-06 10:27 46.22257 6.02934 4392 ft 209 kts 345°
2026-05-06 10:28 46.23701 6.03077 5018 ft 216 kts 17°
2026-05-06 10:28 46.25090 6.03909 5693 ft 218 kts 24°
2026-05-06 10:28 46.26480 6.04899 6359 ft 221 kts 28°
2026-05-06 10:28 46.27638 6.06340 6872 ft 230 kts 51°
2026-05-06 10:29 46.28742 6.08175 7134 ft 254 kts 46°
2026-05-06 10:29 46.30037 6.10073 7433 ft 277 kts 44°
2026-05-06 10:29 46.31482 6.12068 7918 ft 293 kts 43°
2026-05-06 10:29 46.32990 6.14095 8679 ft 299 kts 43°
2026-05-06 10:30 46.34532 6.16146 9462 ft 303 kts 43°
2026-05-06 10:30 46.36097 6.18228 10146 ft 311 kts 43°
2026-05-06 10:30 46.37754 6.20403 10390 ft 334 kts 42°
2026-05-06 10:30 46.39532 6.22717 10763 ft 349 kts 42°
2026-05-06 10:31 46.41360 6.25093 11372 ft 356 kts 43°
2026-05-06 10:31 46.43202 6.27508 12069 ft 360 kts 43°
2026-05-06 10:31 46.45061 6.29975 12763 ft 364 kts 43°
2026-05-06 10:31 46.46910 6.32453 13446 ft 368 kts 43°
2026-05-06 10:32 46.48813 6.35019 14102 ft 371 kts 44°
2026-05-06 10:32 46.50691 6.37549 14701 ft 374 kts 44°
2026-05-06 10:32 46.52597 6.40117 15353 ft 376 kts 44°
2026-05-06 10:32 46.54341 6.42966 15939 ft 378 kts 56°
2026-05-06 10:33 46.55626 6.46282 16547 ft 377 kts 69°
2026-05-06 10:33 46.56404 6.49905 17146 ft 376 kts 82°
2026-05-06 10:33 46.56659 6.53669 17764 ft 374 kts 94°
2026-05-06 10:33 46.56575 6.57432 18357 ft 375 kts 96°
2026-05-06 10:34 46.56483 6.61234 18916 ft 376 kts 96°
2026-05-06 10:34 46.56393 6.65032 19482 ft 377 kts 95°
2026-05-06 10:34 46.56333 6.67553 19864 ft 378 kts 95°
2026-05-06 10:34 46.56242 6.71376 20423 ft 379 kts 95°
2026-05-06 10:35 46.56146 6.75200 20985 ft 379 kts 95°
2026-05-06 10:35 46.56045 6.79042 21515 ft 380 kts 95°
2026-05-06 10:35 46.56002 6.82893 22053 ft 383 kts 90°
2026-05-06 10:35 46.56409 6.86744 22570 ft 389 kts 78°
2026-05-06 10:36 46.57355 6.90454 22999 ft 397 kts 67°
2026-05-06 10:36 46.58837 6.93878 23417 ft 405 kts 55°
2026-05-06 10:36 46.60626 6.97070 23767 ft 409 kts 54°
2026-05-06 10:36 46.62436 7.00311 24084 ft 413 kts 54°
2026-05-06 10:37 46.64243 7.03574 24405 ft 418 kts 55°
2026-05-06 10:37 46.66070 7.06892 24736 ft 422 kts 55°
2026-05-06 10:37 46.67919 7.10250 25059 ft 426 kts 55°
2026-05-06 10:37 46.69778 7.13621 25351 ft 431 kts 54°
2026-05-06 10:38 46.71663 7.17040 25631 ft 435 kts 55°
2026-05-06 10:38 46.73559 7.20485 25905 ft 439 kts 55°
2026-05-06 10:38 46.75479 7.23972 26216 ft 442 kts 55°
2026-05-06 10:38 46.77387 7.27436 26512 ft 445 kts 55°
2026-05-06 10:39 46.79360 7.31020 26814 ft 449 kts 55°
2026-05-06 10:39 46.81293 7.34534 27073 ft 452 kts 55°
2026-05-06 10:39 46.83269 7.38142 27243 ft 459 kts 54°
2026-05-06 10:39 46.85272 7.41809 27451 ft 464 kts 55°
2026-05-06 10:40 46.87307 7.45539 27723 ft 468 kts 55°
2026-05-06 10:40 46.89346 7.49282 27993 ft 472 kts 55°
2026-05-06 10:40 46.91395 7.53048 28239 ft 476 kts 55°
2026-05-06 10:40 46.93462 7.56851 28532 ft 479 kts 55°
2026-05-06 10:41 46.95545 7.60687 28834 ft 482 kts 55°
2026-05-06 10:41 46.97633 7.64548 29100 ft 485 kts 55°
2026-05-06 10:41 46.99730 7.68434 29359 ft 488 kts 55°
2026-05-06 10:41 47.01821 7.72315 29634 ft 492 kts 55°
2026-05-06 10:42 47.03941 7.76249 29886 ft 495 kts 55°
2026-05-06 10:42 47.06086 7.80225 30110 ft 497 kts 55°
2026-05-06 10:42 47.08034 7.84386 30326 ft 493 kts 66°
2026-05-06 10:42 47.09442 7.89013 30538 ft 487 kts 77°
2026-05-06 10:43 47.10248 7.93788 30771 ft 480 kts 88°
2026-05-06 10:43 47.10491 7.98560 31046 ft 471 kts 98°
2026-05-06 10:43 47.10199 8.03268 31379 ft 460 kts 108°
2026-05-06 10:44 47.08198 8.11963 32102 ft 444 kts 122°
2026-05-06 10:44 47.06941 8.16105 32422 ft 444 kts 122°
2026-05-06 10:44 47.05684 8.20240 32748 ft 444 kts 122°
2026-05-06 10:44 47.04426 8.24381 33012 ft 445 kts 122°
2026-05-06 10:45 47.03163 8.28532 33237 ft 447 kts 122°
2026-05-06 10:45 47.01895 8.32693 33544 ft 447 kts 122°
2026-05-06 10:45 47.00628 8.36845 33881 ft 446 kts 122°
2026-05-06 10:45 46.99361 8.41000 34110 ft 447 kts 122°
2026-05-06 10:46 46.98094 8.45156 34379 ft 447 kts 122°
2026-05-06 10:46 46.96819 8.49325 34599 ft 447 kts 121°
2026-05-06 10:46 46.95547 8.53478 34803 ft 448 kts 121°
2026-05-06 10:46 46.94271 8.57644 34997 ft 448 kts 121°
2026-05-06 10:47 46.92993 8.61808 35234 ft 449 kts 121°
2026-05-06 10:47 46.91706 8.65981 35470 ft 451 kts 121°
2026-05-06 10:47 46.90408 8.70170 35681 ft 452 kts 121°
2026-05-06 10:47 46.89109 8.74356 35906 ft 453 kts 121°
2026-05-06 10:48 46.87825 8.78499 36118 ft 454 kts 120°
2026-05-06 10:48 46.86508 8.82750 36333 ft 454 kts 120°
2026-05-06 10:48 46.85218 8.86911 36482 ft 455 kts 120°
2026-05-06 10:48 46.83910 8.91116 36646 ft 455 kts 120°
2026-05-06 10:49 46.82596 8.95325 36801 ft 456 kts 120°
2026-05-06 10:49 46.79960 9.03748 36829 ft 456 kts 120°
2026-05-06 10:50 46.77330 9.12143 36838 ft 455 kts 120°
2026-05-06 10:50 46.74693 9.20530 36837 ft 455 kts 120°
2026-05-06 10:51 46.72046 9.28921 36829 ft 455 kts 120°
2026-05-06 10:51 46.69395 9.37287 36787 ft 455 kts 121°
2026-05-06 10:52 46.66742 9.45638 36799 ft 452 kts 121°
2026-05-06 10:52 46.64102 9.53907 36842 ft 454 kts 121°
2026-05-06 10:53 46.61428 9.62245 36862 ft 455 kts 121°
2026-05-06 10:53 46.58754 9.70581 36871 ft 455 kts 121°
2026-05-06 10:54 46.56085 9.78896 36834 ft 454 kts 121°
2026-05-06 10:54 46.53401 9.87211 36851 ft 455 kts 122°
2026-05-06 10:55 46.50696 9.95532 36860 ft 455 kts 121°
2026-05-06 10:55 46.47669 10.03511 36868 ft 444 kts 134°
2026-05-06 10:56 46.43378 10.09695 36835 ft 431 kts 147°
2026-05-06 10:56 46.38752 10.15230 36828 ft 431 kts 148°
2026-05-06 10:57 46.34146 10.20729 36798 ft 432 kts 148°
2026-05-06 10:57 46.31827 10.23495 35854 ft 433 kts 148°
2026-05-06 10:57 46.29495 10.26278 34641 ft 436 kts 149°
2026-05-06 10:57 46.27172 10.29054 33771 ft 432 kts 150°
2026-05-06 10:58 46.24870 10.31806 33363 ft 426 kts 150°
2026-05-06 10:58 46.22598 10.34525 32811 ft 422 kts 150°
2026-05-06 10:58 46.20340 10.37215 32201 ft 419 kts 150°
2026-05-06 10:58 46.18101 10.39876 31687 ft 415 kts 150°
2026-05-06 10:59 46.15873 10.42513 31163 ft 411 kts 150°
2026-05-06 10:59 46.13673 10.45112 30697 ft 407 kts 150°
2026-05-06 10:59 46.11492 10.47678 30229 ft 403 kts 150°
2026-05-06 10:59 46.09327 10.50224 29742 ft 399 kts 150°
2026-05-06 11:00 46.07194 10.52745 29278 ft 394 kts 150°
2026-05-06 11:00 46.05094 10.55229 28826 ft 388 kts 150°
2026-05-06 11:00 46.03019 10.57676 28418 ft 382 kts 150°
2026-05-06 11:00 46.00985 10.60076 28013 ft 375 kts 150°
2026-05-06 11:01 45.98982 10.62435 27607 ft 370 kts 150°
2026-05-06 11:01 45.97003 10.64758 27191 ft 365 kts 150°
2026-05-06 11:01 45.95047 10.67052 26796 ft 361 kts 150°
2026-05-06 11:01 45.93110 10.69322 26375 ft 357 kts 150°
2026-05-06 11:02 45.91213 10.71537 25935 ft 354 kts 149°
2026-05-06 11:02 45.89315 10.73754 25557 ft 350 kts 149°
2026-05-06 11:02 45.87425 10.75958 25136 ft 349 kts 149°
2026-05-06 11:02 45.85548 10.78145 24707 ft 348 kts 149°
2026-05-06 11:03 45.83669 10.80326 24282 ft 347 kts 149°
2026-05-06 11:03 45.81794 10.82507 23847 ft 346 kts 149°
2026-05-06 11:03 45.79928 10.84679 23393 ft 345 kts 149°
2026-05-06 11:03 45.78071 10.86840 22920 ft 342 kts 148°
2026-05-06 11:04 45.76241 10.88972 22495 ft 337 kts 148°
2026-05-06 11:04 45.74435 10.91073 22077 ft 333 kts 148°
2026-05-06 11:04 45.72661 10.93144 21680 ft 326 kts 148°
2026-05-06 11:04 45.70903 10.95186 21275 ft 324 kts 148°
2026-05-06 11:05 45.69156 10.97206 20879 ft 321 kts 148°
2026-05-06 11:05 45.67426 10.99208 20486 ft 319 kts 148°
2026-05-06 11:05 45.65704 11.01201 20076 ft 318 kts 147°
2026-05-06 11:05 45.64138 11.03475 19694 ft 325 kts 135°
2026-05-06 11:06 45.62860 11.06165 19293 ft 329 kts 130°
2026-05-06 11:06 45.61633 11.08910 18895 ft 328 kts 130°
2026-05-06 11:06 45.60403 11.11648 18499 ft 328 kts 130°
2026-05-06 11:06 45.59168 11.14392 18093 ft 327 kts 129°
2026-05-06 11:07 45.57941 11.17121 17676 ft 325 kts 129°
2026-05-06 11:07 45.56724 11.19830 17293 ft 323 kts 129°
2026-05-06 11:07 45.55518 11.22523 16915 ft 321 kts 129°
2026-05-06 11:07 45.54332 11.25165 16536 ft 320 kts 129°
2026-05-06 11:08 45.53133 11.27827 16171 ft 317 kts 129°
2026-05-06 11:08 45.51796 11.30187 16050 ft 295 kts 146°
2026-05-06 11:08 45.50196 11.31858 15977 ft 278 kts 153°
2026-05-06 11:08 45.48607 11.33399 15893 ft 276 kts 153°
2026-05-06 11:09 45.47011 11.34929 15632 ft 277 kts 153°
2026-05-06 11:09 45.45408 11.36456 15325 ft 277 kts 153°
2026-05-06 11:09 45.43798 11.37988 14999 ft 278 kts 152°
2026-05-06 11:09 45.42189 11.39522 14682 ft 278 kts 152°
2026-05-06 11:10 45.40580 11.41051 14357 ft 278 kts 152°
2026-05-06 11:10 45.38971 11.42578 14029 ft 280 kts 152°
2026-05-06 11:10 45.37345 11.44126 13693 ft 283 kts 152°
2026-05-06 11:10 45.35709 11.45687 13337 ft 283 kts 152°
2026-05-06 11:11 45.34075 11.47247 12989 ft 283 kts 152°
2026-05-06 11:11 45.32451 11.48796 12655 ft 286 kts 152°
2026-05-06 11:11 45.30754 11.50409 12305 ft 292 kts 152°
2026-05-06 11:11 45.29070 11.52000 11936 ft 298 kts 152°
2026-05-06 11:12 45.27335 11.53638 11561 ft 300 kts 151°
2026-05-06 11:12 45.25605 11.55277 11206 ft 298 kts 151°
2026-05-06 11:12 45.23887 11.56911 10821 ft 296 kts 151°
2026-05-06 11:12 45.22179 11.58540 10451 ft 295 kts 151°
2026-05-06 11:13 45.20487 11.60151 10224 ft 288 kts 151°
2026-05-06 11:13 45.18834 11.61719 9876 ft 287 kts 151°
2026-05-06 11:13 45.17180 11.63280 9549 ft 282 kts 150°
2026-05-06 11:13 45.15562 11.64808 9303 ft 276 kts 150°
2026-05-06 11:14 45.13998 11.66292 9157 ft 266 kts 150°
2026-05-06 11:14 45.12494 11.67719 9047 ft 255 kts 151°
2026-05-06 11:14 45.11063 11.69123 8936 ft 247 kts 144°
2026-05-06 11:14 45.09867 11.70867 8737 ft 247 kts 136°
2026-05-06 11:15 45.08729 11.72679 8514 ft 245 kts 136°
2026-05-06 11:15 45.07596 11.74484 8309 ft 245 kts 136°
2026-05-06 11:15 45.06666 11.76505 8084 ft 252 kts 110°
2026-05-06 11:15 45.06685 11.78980 7869 ft 260 kts 71°
2026-05-06 11:16 45.07701 11.81034 7676 ft 262 kts 44°
2026-05-06 11:16 45.09044 11.82791 7480 ft 263 kts 40°
2026-05-06 11:16 45.10432 11.84488 7280 ft 263 kts 39°
2026-05-06 11:16 45.11820 11.86159 7082 ft 261 kts 40°
2026-05-06 11:17 45.13200 11.87834 6891 ft 260 kts 40°
2026-05-06 11:17 45.14563 11.89512 6693 ft 259 kts 40°
2026-05-06 11:17 45.15916 11.91192 6506 ft 261 kts 40°
2026-05-06 11:17 45.17282 11.92901 6317 ft 261 kts 40°
2026-05-06 11:18 45.18637 11.94601 6104 ft 260 kts 40°
2026-05-06 11:18 45.19987 11.96297 5899 ft 258 kts 40°
2026-05-06 11:18 45.21331 11.97985 5695 ft 256 kts 40°
2026-05-06 11:18 45.22643 11.99622 5480 ft 254 kts 40°
2026-05-06 11:19 45.23965 12.01290 5298 ft 253 kts 41°
2026-05-06 11:19 45.25270 12.02947 5094 ft 251 kts 41°
2026-05-06 11:19 45.26568 12.04595 4891 ft 251 kts 41°
2026-05-06 11:19 45.27870 12.06250 4690 ft 250 kts 41°
2026-05-06 11:20 45.29167 12.07898 4481 ft 249 kts 41°
2026-05-06 11:20 45.30456 12.09537 4279 ft 249 kts 42°
2026-05-06 11:20 45.31748 12.11182 4073 ft 249 kts 42°
2026-05-06 11:20 45.33032 12.12816 3871 ft 247 kts 42°
2026-05-06 11:21 45.34304 12.14437 3670 ft 244 kts 42°
2026-05-06 11:21 45.35551 12.16028 3483 ft 239 kts 42°
2026-05-06 11:21 45.36763 12.17575 3326 ft 232 kts 43°
2026-05-06 11:21 45.37962 12.19106 3054 ft 231 kts 42°
2026-05-06 11:22 45.39147 12.20619 2752 ft 226 kts 43°
2026-05-06 11:22 45.40299 12.22092 2461 ft 220 kts 43°
2026-05-06 11:22 45.41427 12.23534 2192 ft 215 kts 43°
2026-05-06 11:22 45.42515 12.24925 1885 ft 204 kts 44°
2026-05-06 11:23 45.43529 12.26223 1628 ft 192 kts 43°
2026-05-06 11:23 45.44493 12.27457 1393 ft 175 kts 43°
2026-05-06 11:23 45.45346 12.28550 1141 ft 161 kts 44°
2026-05-06 11:23 45.46157 12.29591 933 ft 154 kts 43°
2026-05-06 11:24 45.46950 12.30608 710 ft 152 kts 44°
2026-05-06 11:24 45.47734 12.31615 508 ft 149 kts 45°
2026-05-06 11:24 45.48493 12.32595 304 ft 146 kts 45°
2026-05-06 11:24 45.49242 12.33557 111 ft 145 kts 45°
2026-05-06 11:25 45.49963 12.34492 15 ft 122 kts 43°
2026-05-06 11:25 45.50369 12.35005 14 ft 34 kts 41°
2026-05-06 11:25 45.50485 12.35053 14 ft 14 kts 14°
2026-05-06 11:25 45.50571 12.35074 15 ft 9 kts 355°
2026-05-06 11:26 45.50610 12.35027 14 ft 7 kts 293°
2026-05-06 11:26 45.50613 12.34962 15 ft 6 kts 268°
2026-05-06 11:26 45.50612 12.34915 15 ft 4 kts 267°
2026-05-06 11:26 45.50610 12.34871 15 ft 5 kts 267°
2026-05-06 11:27 45.50609 12.34815 15 ft 6 kts 270°
2026-05-06 11:27 45.50626 12.34749 17 ft 8 kts 308°
2026-05-06 11:27 45.50663 12.34687 16 ft 8 kts 312°
2026-05-06 11:27 45.50697 12.34635 15 ft 7 kts 313°
2026-05-06 11:28 45.50726 12.34591 15 ft 6 kts 313°
2026-05-06 11:28 45.50757 12.34543 15 ft 8 kts 313°
2026-05-06 11:28 45.50794 12.34496 15 ft 6 kts 341°
2026-05-06 11:28 45.50825 12.34517 17 ft 4 kts 43°
2026-05-06 11:29 45.50839 12.34536 15 ft 2 kts 44°
2026-05-06 11:29 45.50840 12.34538 15 ft 0 kts 44°